Theta_e
301 300 300 301 301 300 300 300 300 300 299 298 298 297 297 296 295 294 294 293 293 293
300 299 299 300 301 300 300 299 300 300 298 298 297 296 295 295 294 293 294 293 293 292
300 300 300 299 299 300 300 300 299 299 298 297 296 295 294 294 295 293 293 293 292 292
299 299 300 299 299 299 300 299 299 298 298 296 294 294 294 295 294 293 293 292 292 291
298 299 299 298 299 300 298 298 298 298 297 296 295 295 294 293 293 292 291 291 290 290
297 297 297 298 298 299 298 297 297 297 296 295 295 294 294 293 292 292 291 290 289 290
295 296 296 297 297 297 297 296 296 296 296 295 295 293 293 292 292 291 291 290 290 290
295 295 295 295 295 296 296 296 296 295 295 294 293 292 292 291 292 291 289 289 289 290
292 292 293 294 294 294 294 294 294 294 293 293 291 291 291 291 291 290 288 288 288 288
287 289 291 292 292 292 292 293 292 291 290 289 291 290 291 289 290 289 287 287 287 286
283 284 286 288 289 291 292 289 288 288 288 288 288 290 291 289 288 287 286 286 286 286
282 283 284 285 287 287 287 287 287 288 287 287 288 290 290 289 287 286 286 286 285 285
279 282 283 284 285 287 287 287 288 287 287 287 288 289 290 289 287 286 285 285 284 282
278 280 283 284 285 286 286 287 286 286 286 287 287 287 290 290 287 287 286 285 284 283
Wind_Speed
20 13 13 16 13 12 12 12 15 13 12 13 12 11 10 7 7 8 7 8 6 4
16 16 14 15 13 12 12 10 14 14 13 13 13 12 11 8 9 8 7 7 7 5
17 17 15 13 15 14 13 13 15 15 15 14 13 13 12 9 10 9 7 6 8 6
15 16 15 14 15 15 15 15 15 16 15 14 13 13 12 11 11 11 10 8 8 8
13 14 14 14 15 14 14 14 14 14 14 14 14 14 14 13 11 13 12 11 9 9
12 14 15 14 13 13 14 14 14 15 15 15 14 14 14 13 13 13 12 11 10 9
11 12 12 12 12 12 13 14 14 14 14 14 14 13 13 12 12 12 11 10 10 9
6 8 9 11 12 12 13 12 12 13 13 13 13 11 14 13 14 13 12 11 10 9
4 5 7 8 9 11 11 12 12 14 13 14 10 17 21 16 12 12 11 10 9 9
12 8 3 6 9 9 11 11 12 11 12 13 13 20 22 20 10 11 10 9 8 7
13 11 9 3 5 5 6 8 8 10 11 11 11 20 23 22 10 9 10 10 10 9
13 12 10 8 5 3 5 7 9 7 11 13 10 20 23 20 11 10 10 9 9 9
12 12 10 9 7 4 3 7 7 9 10 12 11 19 24 21 9 11 8 7 8 13
13 13 12 10 6 5 5 5 7 8 8 12 13 13 25 27 12 10 9 8 8 7
Wind_Direction
191 187 189 185 179 182 184 185 179 184 185 187 186 183 181 184 184 184 193 195 197 192
191 189 189 179 180 182 180 177 177 179 182 186 186 184 182 188 185 189 193 204 204 205
190 189 186 176 178 178 178 172 175 182 186 186 185 183 185 186 190 190 197 203 205 203
190 189 184 184 183 182 176 177 178 179 182 181 182 185 189 193 188 197 201 205 208 213
193 190 190 190 186 179 179 179 180 180 183 185 188 188 193 193 195 200 204 205 207 215
197 196 201 197 190 183 181 181 182 182 185 185 189 190 196 197 198 203 206 204 208 214
203 204 204 201 193 189 187 182 185 189 186 187 187 189 189 193 198 204 207 206 212 213
214 207 203 197 196 190 190 193 188 184 188 187 189 187 187 190 196 200 201 205 209 214
312 214 207 209 204 200 197 193 187 192 189 191 196 192 191 185 192 194 196 195 198 206
2 354 298 225 201 200 201 194 200 194 191 198 199 190 189 188 189 188 192 188 184 192
357 349 340 295 231 204 197 194 191 200 200 200 206 191 190 186 184 189 191 188 187 189
349 341 335 323 276 216 193 198 207 199 198 206 206 197 190 178 185 195 196 189 185 188
334 336 333 320 297 250 215 218 205 205 202 206 208 197 192 184 182 193 194 186 189 201
335 330 332 324 310 276 235 225 212 214 202 200 205 200 197 191 187 194 189 191 192 200